Powrót do katalogu

FENGYUN 1C DEB

AktywnySSO
NORAD 32167·DEBRIS·🇨🇳 China

Wystrzelony May 10, 1999 z Taiyuan Satellite Launch Center

Loading…

Następne Przeloty (najbliższe 24 godziny)

TLE

ŚwieżeSource: Space-Track

Epoka: Sep 13, 2026, 04:45 UTC

1 32167U 99025CTM 26256.19843149  .00000704  00000-0  24488-3 0  9994
2 32167  98.4921 249.4966 0161807 326.3144  32.7836 14.31526055666010

Śledź FENGYUN 1C DEB w czasie rzeczywistym z AllMySat

Download on the App Store